QPF
0.00 0.00 0.00 0.01 0.04 0.10 0.16 0.07 0.01 0.00 0.00 0.00 0.00 0.00 0.00 0.00 0.00 0.01 0.00 0.00 0.00 0.00 0.00 0.00 0.00 0.00 0.00 0.00 0.00 0.00 0.00 0.00 0.00 0.00 0.00 0.00 0.00 0.00 0.00 0.00 0.00 0.00 0.00 0.00 0.00 0.00 0.00 0.01 0.01
0.00 0.00 0.00 0.00 0.07 0.21 0.13 0.03 0.01 0.00 0.00 0.00 0.00 0.00 0.00 0.00 0.00 0.00 0.00 0.00 0.00 0.00 0.00 0.00 0.00 0.00 0.00 0.00 0.00 0.00 0.00 0.00 0.00 0.00 0.00 0.00 0.00 0.00 0.00 0.00 0.00 0.00 0.00 0.00 0.00 0.00 0.00 0.00 0.00
0.00 0.00 0.00 0.00 0.04 0.12 0.06 0.01 0.00 0.00 0.00 0.00 0.00 0.00 0.00 0.00 0.00 0.00 0.00 0.00 0.00 0.00 0.00 0.00 0.00 0.00 0.00 0.00 0.00 0.00 0.00 0.00 0.00 0.00 0.00 0.00 0.00 0.00 0.00 0.00 0.01 0.00 0.00 0.00 0.00 0.00 0.00 0.00 0.00
0.00 0.00 0.00 0.00 0.01 0.02 0.00 0.00 0.00 0.00 0.00 0.00 0.00 0.00 0.00 0.00 0.00 0.00 0.00 0.00 0.00 0.00 0.00 0.00 0.00 0.00 0.00 0.00 0.00 0.00 0.00 0.00 0.00 0.00 0.00 0.00 0.00 0.00 0.00 0.00 0.01 0.01 0.01 0.00 0.00 0.00 0.00 0.00 0.00
0.00 0.00 0.00 0.00 0.01 0.00 0.00 0.00 0.00 0.00 0.00 0.00 0.01 0.00 0.00 0.00 0.00 0.00 0.00 0.00 0.00 0.00 0.00 0.00 0.00 0.00 0.00 0.00 0.00 0.00 0.00 0.00 0.00 0.00 0.00 0.00 0.00 0.00 0.00 0.01 0.01 0.01 0.01 0.01 0.00 0.00 0.00 0.00 0.00
0.00 0.00 0.00 0.00 0.01 0.00 0.00 0.00 0.00 0.00 0.00 0.01 0.03 0.01 0.00 0.00 0.00 0.00 0.00 0.00 0.00 0.00 0.00 0.00 0.00 0.00 0.00 0.00 0.00 0.00 0.00 0.00 0.00 0.00 0.00 0.00 0.00 0.00 0.00 0.01 0.01 0.01 0.01 0.01 0.01 0.01 0.00 0.00 0.00
0.00 0.00 0.00 0.00 0.00 0.00 0.00 0.00 0.00 0.00 0.00 0.01 0.03 0.02 0.00 0.00 0.00 0.00 0.00 0.00 0.00 0.00 0.00 0.00 0.00 0.00 0.00 0.00 0.00 0.00 0.00 0.00 0.00 0.00 0.00 0.00 0.00 0.00 0.00 0.01 0.01 0.01 0.01 0.01 0.01 0.01 0.01 0.01 0.00
0.00 0.00 0.00 0.00 0.00 0.00 0.00 0.00 0.00 0.00 0.00 0.00 0.01 0.01 0.00 0.00 0.00 0.00 0.00 0.00 0.00 0.00 0.00 0.00 0.00 0.00 0.00 0.00 0.00 0.00 0.00 0.00 0.00 0.00 0.00 0.00 0.00 0.00 0.00 0.00 0.00 0.00 0.01 0.01 0.02 0.02 0.02 0.02 0.01
0.00 0.00 0.00 0.00 0.00 0.00 0.00 0.00 0.00 0.00 0.00 0.00 0.01 0.02 0.01 0.01 0.00 0.00 0.00 0.00 0.00 0.00 0.00 0.00 0.00 0.00 0.00 0.00 0.00 0.00 0.00 0.00 0.00 0.00 0.00 0.00 0.00 0.00 0.00 0.00 0.01 0.01 0.01 0.01 0.01 0.03 0.04 0.04 0.03
0.00 0.00 0.00 0.00 0.00 0.00 0.00 0.00 0.00 0.00 0.00 0.00 0.02 0.03 0.00 0.00 0.01 0.00 0.00 0.00 0.00 0.00 0.00 0.00 0.00 0.00 0.00 0.00 0.00 0.00 0.00 0.01 0.01 0.01 0.02 0.01 0.02 0.01 0.00 0.01 0.02 0.02 0.02 0.02 0.02 0.03 0.04 0.03 0.04
0.00 0.00 0.00 0.00 0.00 0.00 0.00 0.00 0.00 0.00 0.00 0.00 0.02 0.04 0.01 0.00 0.00 0.00 0.00 0.00 0.00 0.00 0.00 0.00 0.00 0.00 0.00 0.00 0.01 0.02 0.02 0.04 0.05 0.04 0.07 0.06 0.04 0.02 0.01 0.03 0.06 0.06 0.05 0.05 0.06 0.07 0.04 0.06 0.09
0.00 0.00 0.00 0.00 0.00 0.00 0.00 0.00 0.00 0.00 0.00 0.01 0.02 0.05 0.02 0.00 0.00 0.00 0.02 0.02 0.01 0.01 0.00 0.00 0.00 0.01 0.01 0.02 0.04 0.04 0.04 0.04 0.05 0.07 0.11 0.11 0.10 0.06 0.05 0.07 0.09 0.11 0.11 0.12 0.14 0.15 0.11 0.14 0.17
0.00 0.00 0.00 0.00 0.00 0.00 0.00 0.00 0.00 0.00 0.00 0.00 0.01 0.03 0.03 0.01 0.00 0.01 0.04 0.03 0.05 0.03 0.01 0.00 0.01 0.02 0.03 0.05 0.07 0.06 0.06 0.07 0.10 0.14 0.18 0.17 0.15 0.12 0.11 0.10 0.11 0.11 0.14 0.15 0.17 0.18 0.22 0.24 0.22
0.00 0.00 0.00 0.00 0.00 0.00 0.00 0.00 0.00 0.00 0.01 0.01 0.00 0.01 0.01 0.00 0.00 0.01 0.02 0.07 0.10 0.05 0.02 0.02 0.03 0.04 0.05 0.06 0.08 0.09 0.09 0.10 0.10 0.12 0.13 0.15 0.17 0.18 0.17 0.16 0.16 0.17 0.17 0.17 0.18 0.20 0.27 0.26 0.23
0.00 0.00 0.00 0.00 0.00 0.00 0.00 0.00 0.00 0.01 0.02 0.01 0.00 0.00 0.00 0.00 0.00 0.01 0.01 0.03 0.04 0.04 0.04 0.05 0.06 0.08 0.09 0.11 0.11 0.12 0.11 0.10 0.12 0.13 0.13 0.12 0.14 0.19 0.20 0.19 0.19 0.20 0.20 0.18 0.18 0.21 0.22 0.19 0.18
0.00 0.00 0.00 0.00 0.00 0.00 0.00 0.01 0.02 0.05 0.02 0.00 0.00 0.00 0.00 0.00 0.01 0.01 0.02 0.02 0.03 0.04 0.08 0.10 0.09 0.10 0.14 0.17 0.18 0.18 0.17 0.17 0.17 0.17 0.18 0.17 0.17 0.21 0.23 0.22 0.18 0.19 0.21 0.23 0.24 0.21 0.19 0.17 0.15
0.00 0.00 0.00 0.00 0.00 0.00 0.00 0.01 0.01 0.01 0.01 0.00 0.00 0.00 0.00 0.00 0.01 0.01 0.01 0.02 0.04 0.07 0.08 0.10 0.10 0.11 0.12 0.13 0.13 0.13 0.15 0.16 0.18 0.21 0.23 0.23 0.23 0.22 0.23 0.22 0.22 0.23 0.23 0.24 0.22 0.24 0.22 0.17 0.14
0.00 0.00 0.00 0.00 0.00 0.00 0.00 0.00 0.00 0.00 0.00 0.00 0.00 0.00 0.00 0.01 0.01 0.00 0.01 0.02 0.03 0.04 0.05 0.06 0.07 0.08 0.09 0.11 0.12 0.14 0.15 0.17 0.20 0.23 0.25 0.27 0.29 0.28 0.28 0.24 0.27 0.28 0.24 0.20 0.18 0.18 0.16 0.15 0.14
0.00 0.01 0.01 0.00 0.01 0.00 0.00 0.01 0.03 0.01 0.00 0.00 0.00 0.00 0.01 0.01 0.01 0.01 0.01 0.02 0.02 0.02 0.03 0.03 0.05 0.07 0.08 0.10 0.13 0.17 0.19 0.22 0.27 0.32 0.36 0.35 0.34 0.35 0.34 0.28 0.28 0.24 0.19 0.17 0.14 0.14 0.15 0.12 0.10
0.00 0.01 0.01 0.00 0.01 0.00 0.01 0.05 0.09 0.07 0.02 0.01 0.01 0.00 0.01 0.01 0.01 0.01 0.00 0.01 0.01 0.02 0.02 0.03 0.04 0.06 0.07 0.08 0.10 0.14 0.16 0.17 0.16 0.17 0.20 0.23 0.27 0.31 0.34 0.36 0.31 0.27 0.25 0.23 0.17 0.15 0.14 0.12 0.10
0.00 0.00 0.00 0.02 0.04 0.01 0.03 0.14 0.18 0.19 0.09 0.03 0.01 0.00 0.00 0.00 0.01 0.02 0.01 0.01 0.00 0.01 0.01 0.02 0.02 0.03 0.04 0.05 0.06 0.08 0.10 0.12 0.14 0.14 0.15 0.15 0.17 0.23 0.30 0.32 0.31 0.33 0.29 0.29 0.26 0.20 0.17 0.14 0.11
0.01 0.01 0.00 0.01 0.02 0.01 0.03 0.16 0.32 0.39 0.31 0.13 0.04 0.01 0.01 0.01 0.01 0.01 0.01 0.01 0.00 0.00 0.00 0.00 0.01 0.02 0.03 0.04 0.06 0.07 0.08 0.08 0.08 0.08 0.08 0.09 0.09 0.14 0.21 0.25 0.28 0.32 0.35 0.37 0.31 0.26 0.22 0.18 0.13
0.00 0.00 0.00 0.00 0.01 0.02 0.07 0.19 0.40 0.45 0.36 0.16 0.04 0.01 0.01 0.01 0.01 0.01 0.01 0.00 0.00 0.00 0.00 0.01 0.02 0.02 0.03 0.05 0.06 0.06 0.05 0.05 0.05 0.06 0.06 0.06 0.06 0.07 0.10 0.14 0.20 0.25 0.25 0.29 0.31 0.31 0.25 0.21 0.15
0.00 0.00 0.01 0.02 0.04 0.09 0.13 0.22 0.39 0.39 0.24 0.11 0.04 0.01 0.01 0.01 0.01 0.01 0.01 0.00 0.01 0.01 0.01 0.01 0.02 0.03 0.03 0.03 0.04 0.05 0.05 0.05 0.04 0.05 0.05 0.06 0.05 0.07 0.08 0.10 0.12 0.16 0.19 0.21 0.21 0.21 0.21 0.20 0.20
0.00 0.00 0.05 0.17 0.30 0.27 0.20 0.23 0.28 0.16 0.07 0.03 0.02 0.02 0.01 0.00 0.00 0.01 0.01 0.00 0.00 0.00 0.00 0.00 0.01 0.02 0.03 0.03 0.04 0.05 0.05 0.04 0.04 0.04 0.05 0.05 0.04 0.05 0.06 0.06 0.08 0.09 0.12 0.15 0.18 0.19 0.18 0.19 0.19
0.00 0.00 0.02 0.06 0.13 0.17 0.17 0.23 0.15 0.04 0.02 0.01 0.01 0.01 0.00 0.00 0.00 0.00 0.00 0.00 0.00 0.00 0.00 0.00 0.01 0.02 0.02 0.02 0.03 0.04 0.04 0.03 0.02 0.04 0.04 0.04 0.03 0.03 0.03 0.04 0.04 0.04 0.04 0.07 0.10 0.11 0.14 0.16 0.16
0.00 0.00 0.00 0.00 0.01 0.04 0.12 0.16 0.09 0.04 0.02 0.01 0.01 0.00 0.00 0.00 0.00 0.00 0.00 0.00 0.00 0.00 0.00 0.00 0.01 0.01 0.01 0.01 0.02 0.02 0.03 0.02 0.02 0.03 0.03 0.02 0.02 0.02 0.02 0.03 0.04 0.03 0.03 0.03 0.03 0.04 0.06 0.10 0.11
0.00 0.00 0.00 0.00 0.00 0.02 0.08 0.14 0.13 0.06 0.02 0.01 0.01 0.00 0.00 0.00 0.00 0.00 0.00 0.00 0.00 0.00 0.00 0.00 0.00 0.00 0.00 0.00 0.01 0.01 0.01 0.02 0.02 0.02 0.02 0.02 0.02 0.02 0.02 0.03 0.03 0.03 0.03 0.03 0.02 0.02 0.03 0.05 0.07
0.00 0.00 0.00 0.00 0.00 0.01 0.02 0.07 0.04 0.02 0.01 0.00 0.00 0.00 0.00 0.00 0.00 0.00 0.00 0.00 0.00 0.00 0.00 0.00 0.00 0.00 0.00 0.00 0.00 0.00 0.00 0.01 0.02 0.02 0.01 0.02 0.02 0.03 0.04 0.03 0.04 0.05 0.04 0.04 0.03 0.02 0.01 0.02 0.04
0.00 0.00 0.00 0.00 0.00 0.00 0.01 0.02 0.01 0.00 0.00 0.00 0.00 0.00 0.00 0.00 0.00 0.00 0.00 0.00 0.00 0.00 0.00 0.00 0.00 0.00 0.00 0.00 0.00 0.00 0.00 0.01 0.02 0.02 0.02 0.02 0.03 0.04 0.04 0.05 0.06 0.06 0.05 0.06 0.06 0.04 0.02 0.01 0.01
MSLP
1009.92 1010.85 1011.67 1012.20 1012.27 1011.80 1010.84 1009.51 1008.01 1006.57 1005.39 1004.59 1004.18 1004.12 1004.28 1004.52 1004.73 1004.83 1004.85 1004.84 1004.90 1005.13 1005.57 1006.21 1007.02 1007.87 1008.66 1009.31 1009.79 1010.11 1010.32 1010.51 1010.75 1011.09 1011.52 1012.02 1012.51 1012.95 1013.27 1013.48 1013.59 1013.66 1013.73 1013.85 1014.03 1014.26 1014.50 1014.72 1014.88
1009.88 1010.77 1011.49 1011.84 1011.71 1011.04 1009.91 1008.47 1006.93 1005.52 1004.42 1003.73 1003.44 1003.48 1003.72 1004.01 1004.24 1004.36 1004.40 1004.43 1004.55 1004.85 1005.37 1006.10 1006.98 1007.89 1008.73 1009.41 1009.91 1010.25 1010.48 1010.69 1010.95 1011.29 1011.72 1012.19 1012.64 1013.02 1013.29 1013.45 1013.53 1013.59 1013.68 1013.83 1014.06 1014.34 1014.63 1014.88 1015.04
1009.80 1010.60 1011.15 1011.30 1010.95 1010.09 1008.82 1007.32 1005.80 1004.47 1003.50 1002.95 1002.80 1002.95 1003.26 1003.59 1003.84 1003.98 1004.04 1004.10 1004.28 1004.65 1005.25 1006.06 1007.00 1007.96 1008.83 1009.54 1010.07 1010.43 1010.69 1010.92 1011.20 1011.54 1011.95 1012.38 1012.77 1013.07 1013.28 1013.38 1013.42 1013.48 1013.59 1013.79 1014.08 1014.43 1014.77 1015.05 1015.22
1009.71 1010.37 1010.72 1010.65 1010.08 1009.07 1007.71 1006.21 1004.76 1003.57 1002.76 1002.37 1002.35 1002.60 1002.97 1003.32 1003.58 1003.73 1003.81 1003.92 1004.16 1004.60 1005.27 1006.13 1007.11 1008.10 1008.98 1009.70 1010.24 1010.61 1010.90 1011.16 1011.45 1011.80 1012.18 1012.57 1012.90 1013.13 1013.26 1013.30 1013.32 1013.37 1013.51 1013.76 1014.11 1014.52 1014.92 1015.23 1015.43
1009.64 1010.11 1010.25 1009.96 1009.22 1008.08 1006.70 1005.25 1003.93 1002.91 1002.28 1002.06 1002.17 1002.49 1002.89 1003.25 1003.50 1003.64 1003.73 1003.88 1004.17 1004.67 1005.39 1006.30 1007.30 1008.28 1009.15 1009.86 1010.38 1010.76 1011.05 1011.33 1011.64 1012.00 1012.37 1012.72 1013.00 1013.17 1013.24 1013.24 1013.22 1013.27 1013.43 1013.72 1014.13 1014.59 1015.04 1015.39 1015.60
1009.59 1009.87 1009.79 1009.31 1008.44 1007.25 1005.90 1004.56 1003.40 1002.57 1002.13 1002.05 1002.25 1002.61 1003.01 1003.33 1003.55 1003.66 1003.76 1003.93 1004.26 1004.81 1005.57 1006.50 1007.49 1008.45 1009.29 1009.95 1010.44 1010.80 1011.10 1011.38 1011.71 1012.07 1012.45 1012.78 1013.03 1013.17 1013.19 1013.15 1013.12 1013.16 1013.33 1013.65 1014.09 1014.59 1015.08 1015.46 1015.68
1009.54 1009.63 1009.37 1008.75 1007.80 1006.61 1005.35 1004.16 1003.19 1002.55 1002.27 1002.31 1002.56 1002.92 1003.27 1003.53 1003.67 1003.75 1003.82 1004.00 1004.36 1004.94 1005.72 1006.65 1007.62 1008.54 1009.31 1009.92 1010.36 1010.69 1010.97 1011.26 1011.60 1011.97 1012.36 1012.69 1012.94 1013.05 1013.06 1013.00 1012.95 1012.99 1013.16 1013.48 1013.93 1014.45 1014.95 1015.35 1015.60
1009.46 1009.39 1008.99 1008.27 1007.29 1006.17 1005.03 1004.02 1003.24 1002.79 1002.64 1002.75 1003.02 1003.33 1003.60 1003.76 1003.82 1003.83 1003.87 1004.04 1004.41 1005.00 1005.79 1006.70 1007.63 1008.49 1009.20 1009.74 1010.13 1010.41 1010.67 1010.95 1011.29 1011.67 1012.07 1012.42 1012.67 1012.80 1012.81 1012.75 1012.69 1012.71 1012.87 1013.18 1013.62 1014.13 1014.63 1015.04 1015.30
1009.31 1009.10 1008.61 1007.85 1006.90 1005.87 1004.88 1004.05 1003.47 1003.17 1003.13 1003.28 1003.53 1003.77 1003.94 1003.99 1003.95 1003.89 1003.88 1004.04 1004.40 1004.98 1005.75 1006.63 1007.52 1008.32 1008.96 1009.43 1009.76 1009.99 1010.21 1010.47 1010.80 1011.19 1011.60 1011.97 1012.24 1012.39 1012.42 1012.37 1012.31 1012.32 1012.45 1012.73 1013.13 1013.61 1014.10 1014.51 1014.80
1009.05 1008.76 1008.20 1007.44 1006.55 1005.64 1004.81 1004.16 1003.75 1003.58 1003.62 1003.80 1004.01 1004.18 1004.25 1004.21 1004.08 1003.95 1003.91 1004.03 1004.37 1004.93 1005.67 1006.50 1007.33 1008.06 1008.64 1009.05 1009.31 1009.50 1009.67 1009.90 1010.21 1010.59 1011.01 1011.39 1011.69 1011.87 1011.93 1011.89 1011.84 1011.84 1011.93 1012.16 1012.52 1012.96 1013.42 1013.83 1014.13
1008.70 1008.34 1007.76 1007.02 1006.20 1005.41 1004.74 1004.25 1003.98 1003.93 1004.04 1004.23 1004.43 1004.55 1004.56 1004.45 1004.27 1004.10 1004.02 1004.11 1004.42 1004.94 1005.62 1006.40 1007.16 1007.83 1008.33 1008.68 1008.89 1009.02 1009.15 1009.33 1009.61 1009.97 1010.37 1010.76 1011.08 1011.29 1011.39 1011.38 1011.34 1011.32 1011.39 1011.57 1011.87 1012.25 1012.68 1013.08 1013.40
1008.28 1007.87 1007.27 1006.55 1005.82 1005.14 1004.60 1004.26 1004.11 1004.16 1004.34 1004.58 1004.78 1004.90 1004.90 1004.79 1004.60 1004.41 1004.32 1004.38 1004.65 1005.11 1005.73 1006.42 1007.11 1007.69 1008.13 1008.42 1008.57 1008.65 1008.73 1008.86 1009.09 1009.41 1009.79 1010.17 1010.51 1010.75 1010.88 1010.91 1010.89 1010.87 1010.90 1011.02 1011.25 1011.58 1011.96 1012.34 1012.68
1007.82 1007.36 1006.75 1006.06 1005.39 1004.82 1004.40 1004.17 1004.15 1004.29 1004.55 1004.85 1005.12 1005.29 1005.34 1005.27 1005.12 1004.97 1004.89 1004.93 1005.15 1005.53 1006.06 1006.65 1007.24 1007.74 1008.11 1008.33 1008.44 1008.47 1008.49 1008.56 1008.73 1009.00 1009.34 1009.71 1010.05 1010.32 1010.49 1010.56 1010.55 1010.52 1010.52 1010.59 1010.75 1011.00 1011.33 1011.68 1012.02
1007.38 1006.87 1006.24 1005.58 1004.97 1004.48 1004.17 1004.06 1004.14 1004.39 1004.74 1005.12 1005.48 1005.75 1005.91 1005.94 1005.89 1005.80 1005.74 1005.77 1005.93 1006.22 1006.64 1007.11 1007.58 1007.99 1008.28 1008.45 1008.51 1008.49 1008.47 1008.48 1008.58 1008.79 1009.08 1009.42 1009.76 1010.05 1010.25 1010.35 1010.36 1010.33 1010.29 1010.29 1010.37 1010.55 1010.80 1011.12 1011.45
1006.99 1006.42 1005.78 1005.16 1004.62 1004.23 1004.02 1004.02 1004.20 1004.54 1004.99 1005.48 1005.95 1006.34 1006.63 1006.79 1006.85 1006.84 1006.82 1006.83 1006.93 1007.12 1007.40 1007.74 1008.09 1008.40 1008.62 1008.74 1008.75 1008.70 1008.62 1008.59 1008.62 1008.76 1009.00 1009.30 1009.62 1009.92 1010.14 1010.27 1010.29 1010.24 1010.16 1010.09 1010.08 1010.16 1010.34 1010.59 1010.90
1006.65 1006.05 1005.43 1004.87 1004.43 1004.16 1004.07 1004.18 1004.46 1004.89 1005.42 1005.99 1006.56 1007.06 1007.46 1007.75 1007.91 1007.98 1007.99 1007.98 1008.01 1008.09 1008.24 1008.45 1008.68 1008.89 1009.04 1009.11 1009.10 1009.02 1008.91 1008.83 1008.81 1008.88 1009.05 1009.30 1009.60 1009.89 1010.11 1010.25 1010.27 1010.20 1010.06 1009.92 1009.81 1009.78 1009.86 1010.04 1010.31
1006.38 1005.78 1005.22 1004.78 1004.48 1004.37 1004.44 1004.67 1005.04 1005.53 1006.10 1006.71 1007.32 1007.88 1008.36 1008.73 1008.96 1009.08 1009.10 1009.07 1009.03 1009.01 1009.03 1009.11 1009.23 1009.36 1009.46 1009.50 1009.47 1009.38 1009.26 1009.13 1009.06 1009.07 1009.17 1009.36 1009.61 1009.87 1010.08 1010.20 1010.21 1010.10 1009.91 1009.67 1009.46 1009.32 1009.29 1009.39 1009.61
1006.17 1005.63 1005.20 1004.94 1004.85 1004.95 1005.19 1005.55 1006.00 1006.51 1007.07 1007.64 1008.21 1008.75 1009.23 1009.61 1009.87 1010.00 1010.02 1009.95 1009.84 1009.73 1009.65 1009.63 1009.67 1009.73 1009.80 1009.83 1009.81 1009.72 1009.59 1009.44 1009.31 1009.25 1009.28 1009.40 1009.59 1009.79 1009.97 1010.06 1010.03 1009.88 1009.62 1009.31 1008.99 1008.74 1008.60 1008.62 1008.79
1006.02 1005.61 1005.38 1005.38 1005.57 1005.91 1006.35 1006.84 1007.33 1007.82 1008.29 1008.74 1009.18 1009.61 1009.99 1010.30 1010.52 1010.63 1010.62 1010.52 1010.36 1010.19 1010.05 1009.96 1009.94 1009.97 1010.03 1010.07 1010.07 1010.00 1009.87 1009.69 1009.52 1009.39 1009.34 1009.37 1009.47 1009.61 1009.73 1009.78 1009.71 1009.51 1009.20 1008.80 1008.40 1008.05 1007.83 1007.77 1007.88
1005.94 1005.72 1005.78 1006.08 1006.59 1007.21 1007.86 1008.46 1008.97 1009.36 1009.67 1009.92 1010.14 1010.35 1010.56 1010.74 1010.87 1010.93 1010.89 1010.76 1010.58 1010.38 1010.21 1010.09 1010.05 1010.08 1010.15 1010.22 1010.24 1010.20 1010.07 1009.88 1009.66 1009.46 1009.32 1009.25 1009.25 1009.30 1009.36 1009.35 1009.25 1009.01 1008.66 1008.22 1007.75 1007.33 1007.04 1006.92 1006.98
1005.96 1005.99 1006.35 1007.01 1007.85 1008.75 1009.59 1010.27 1010.74 1010.99 1011.07 1011.05 1010.98 1010.93 1010.90 1010.91 1010.93 1010.92 1010.85 1010.73 1010.55 1010.36 1010.20 1010.09 1010.06 1010.11 1010.20 1010.30 1010.36 1010.33 1010.21 1010.00 1009.74 1009.46 1009.22 1009.04 1008.94 1008.90 1008.89 1008.83 1008.70 1008.45 1008.09 1007.64 1007.15 1006.71 1006.37 1006.20 1006.24
1006.10 1006.38 1007.06 1008.05 1009.20 1010.34 1011.33 1012.04 1012.43 1012.49 1012.32 1011.99 1011.61 1011.27 1011.01 1010.84 1010.75 1010.69 1010.62 1010.52 1010.38 1010.24 1010.11 1010.03 1010.03 1010.10 1010.22 1010.35 1010.43 1010.43 1010.31 1010.08 1009.76 1009.41 1009.08 1008.80 1008.60 1008.47 1008.39 1008.30 1008.16 1007.93 1007.60 1007.18 1006.72 1006.28 1005.94 1005.75 1005.76
1006.35 1006.87 1007.82 1009.08 1010.47 1011.78 1012.85 1013.55 1013.82 1013.69 1013.25 1012.63 1011.96 1011.36 1010.90 1010.59 1010.43 1010.35 1010.31 1010.27 1010.20 1010.12 1010.04 1010.01 1010.03 1010.12 1010.26 1010.40 1010.49 1010.49 1010.37 1010.12 1009.76 1009.35 1008.93 1008.56 1008.27 1008.07 1007.93 1007.83 1007.71 1007.52 1007.26 1006.91 1006.52 1006.13 1005.82 1005.63 1005.62
1006.70 1007.40 1008.54 1009.98 1011.51 1012.90 1013.98 1014.61 1014.75 1014.42 1013.75 1012.90 1012.01 1011.23 1010.64 1010.26 1010.07 1010.03 1010.05 1010.09 1010.10 1010.09 1010.06 1010.05 1010.09 1010.18 1010.31 1010.45 1010.53 1010.53 1010.40 1010.13 1009.74 1009.27 1008.79 1008.35 1007.99 1007.73 1007.57 1007.47 1007.38 1007.27 1007.09 1006.85 1006.56 1006.26 1006.00 1005.83 1005.80
1007.12 1007.92 1009.15 1010.65 1012.20 1013.58 1014.59 1015.11 1015.11 1014.62 1013.79 1012.79 1011.79 1010.93 1010.30 1009.92 1009.78 1009.81 1009.92 1010.05 1010.14 1010.18 1010.18 1010.18 1010.21 1010.27 1010.37 1010.48 1010.55 1010.53 1010.39 1010.11 1009.70 1009.21 1008.69 1008.20 1007.79 1007.50 1007.31 1007.23 1007.19 1007.15 1007.09 1006.96 1006.79 1006.58 1006.39 1006.26 1006.22
1007.56 1008.37 1009.59 1011.03 1012.50 1013.77 1014.66 1015.05 1014.93 1014.33 1013.43 1012.39 1011.38 1010.54 1009.97 1009.67 1009.63 1009.76 1009.97 1010.17 1010.32 1010.39 1010.39 1010.37 1010.35 1010.36 1010.41 1010.48 1010.52 1010.48 1010.34 1010.06 1009.65 1009.15 1008.61 1008.10 1007.66 1007.35 1007.15 1007.08 1007.09 1007.13 1007.16 1007.15 1007.08 1006.98 1006.86 1006.77 1006.73
1008.00 1008.74 1009.85 1011.15 1012.45 1013.54 1014.26 1014.53 1014.31 1013.68 1012.79 1011.80 1010.89 1010.17 1009.73 1009.57 1009.65 1009.89 1010.18 1010.44 1010.61 1010.67 1010.65 1010.57 1010.48 1010.43 1010.41 1010.42 1010.43 1010.38 1010.24 1009.97 1009.58 1009.09 1008.56 1008.04 1007.58 1007.25 1007.05 1006.98 1007.01 1007.10 1007.21 1007.29 1007.32 1007.31 1007.26 1007.20 1007.17
1008.42 1009.05 1009.99 1011.08 1012.15 1013.03 1013.58 1013.72 1013.46 1012.85 1012.05 1011.21 1010.46 1009.93 1009.66 1009.65 1009.86 1010.18 1010.52 1010.80 1010.95 1010.97 1010.88 1010.73 1010.57 1010.43 1010.35 1010.31 1010.29 1010.23 1010.09 1009.85 1009.48 1009.02 1008.50 1007.98 1007.52 1007.16 1006.94 1006.86 1006.89 1007.00 1007.14 1007.28 1007.38 1007.43 1007.45 1007.43 1007.42
1008.83 1009.33 1010.07 1010.93 1011.76 1012.42 1012.81 1012.86 1012.60 1012.07 1011.41 1010.75 1010.21 1009.88 1009.79 1009.92 1010.22 1010.58 1010.93 1011.17 1011.28 1011.23 1011.06 1010.83 1010.59 1010.38 1010.24 1010.16 1010.11 1010.05 1009.93 1009.70 1009.37 1008.93 1008.42 1007.90 1007.43 1007.04 1006.78 1006.66 1006.66 1006.75 1006.90 1007.05 1007.19 1007.29 1007.35 1007.38 1007.40
1009.27 1009.65 1010.20 1010.83 1011.44 1011.90 1012.16 1012.16 1011.92 1011.50 1011.01 1010.55 1010.21 1010.06 1010.11 1010.33 1010.67 1011.03 1011.33 1011.51 1011.53 1011.40 1011.16 1010.86 1010.55 1010.30 1010.12 1010.01 1009.95 1009.88 1009.76 1009.54 1009.22 1008.79 1008.29 1007.77 1007.27 1006.85 1006.54 1006.36 1006.31 1006.35 1006.46 1006.60 1006.75 1006.88 1006.98 1007.06 1007.13
Thickness
5845 5846 5844 5836 5819 5808 5806 5837 5860 5870 5878 5889 5891 5887 5877 5866 5855 5843 5876 5887 5880 5867 5856 5848 5842 5837 5832 5827 5823 5818 5814 5810 5806 5802 5799 5795 5792 5789 5787 5784 5782 5780 5777 5775 5772 5770 5768 5767 5765
5851 5851 5843 5834 5814 5795 5808 5849 5863 5875 5886 5895 5894 5890 5879 5871 5880 5877 5880 5882 5877 5864 5854 5847 5840 5835 5830 5825 5820 5816 5812 5808 5804 5800 5797 5794 5791 5788 5785 5783 5780 5778 5775 5773 5771 5769 5767 5765 5763
5854 5856 5840 5836 5827 5814 5828 5864 5874 5888 5896 5893 5888 5889 5877 5868 5879 5880 5881 5882 5874 5861 5853 5844 5837 5832 5827 5822 5818 5813 5809 5805 5802 5799 5795 5792 5789 5786 5784 5781 5778 5776 5774 5771 5769 5767 5765 5763 5762
5851 5847 5842 5836 5834 5851 5864 5877 5885 5887 5889 5892 5887 5877 5876 5881 5883 5883 5883 5881 5870 5860 5851 5840 5834 5829 5824 5819 5815 5810 5806 5803 5799 5796 5793 5790 5787 5785 5782 5779 5777 5774 5772 5769 5767 5765 5763 5761 5760
5851 5842 5833 5834 5846 5866 5883 5889 5890 5882 5881 5884 5881 5866 5862 5878 5886 5884 5881 5877 5868 5859 5849 5838 5831 5826 5821 5816 5812 5808 5804 5800 5797 5794 5791 5788 5785 5783 5780 5778 5775 5772 5770 5768 5765 5763 5761 5760 5758
5840 5844 5829 5833 5848 5869 5884 5893 5890 5883 5880 5882 5875 5861 5856 5875 5876 5877 5878 5874 5870 5859 5847 5835 5828 5823 5818 5814 5809 5805 5802 5798 5795 5792 5789 5786 5783 5780 5778 5775 5773 5771 5768 5766 5764 5761 5760 5758 5756
5832 5832 5829 5840 5853 5866 5884 5894 5885 5876 5872 5876 5879 5860 5854 5866 5872 5875 5873 5871 5868 5859 5845 5833 5826 5820 5815 5811 5807 5803 5800 5796 5792 5789 5786 5783 5780 5777 5775 5773 5770 5768 5766 5764 5762 5760 5758 5756 5754
5846 5833 5829 5841 5850 5862 5885 5888 5886 5878 5873 5887 5883 5858 5845 5859 5870 5870 5867 5866 5862 5854 5844 5833 5827 5820 5814 5808 5804 5800 5797 5793 5790 5786 5783 5780 5777 5774 5772 5770 5768 5766 5763 5761 5760 5758 5756 5754 5753
5846 5821 5819 5838 5849 5860 5879 5875 5879 5888 5880 5877 5874 5865 5862 5866 5866 5859 5855 5854 5851 5846 5840 5834 5827 5820 5815 5810 5804 5798 5793 5790 5787 5783 5780 5777 5775 5773 5771 5769 5767 5764 5761 5759 5758 5756 5754 5752 5751
5835 5815 5828 5853 5861 5863 5869 5867 5870 5870 5859 5855 5854 5859 5863 5862 5854 5849 5844 5842 5840 5837 5836 5833 5829 5821 5817 5814 5804 5797 5793 5789 5785 5783 5779 5776 5775 5774 5773 5771 5767 5763 5760 5758 5756 5755 5753 5751 5750
5835 5826 5840 5854 5864 5866 5862 5862 5868 5857 5842 5842 5840 5842 5850 5851 5848 5845 5841 5840 5838 5836 5833 5830 5827 5821 5816 5812 5805 5799 5796 5792 5785 5782 5779 5775 5774 5773 5772 5771 5766 5760 5758 5756 5755 5753 5751 5751 5751
5834 5839 5846 5851 5861 5859 5855 5857 5853 5846 5842 5850 5848 5845 5845 5844 5843 5841 5836 5833 5833 5829 5826 5824 5822 5816 5812 5808 5804 5799 5795 5791 5787 5783 5778 5774 5770 5769 5769 5766 5763 5759 5756 5755 5755 5753 5751 5751 5751
5832 5838 5848 5855 5857 5857 5855 5850 5846 5839 5846 5847 5842 5838 5834 5834 5835 5835 5832 5830 5825 5821 5819 5818 5815 5809 5804 5800 5796 5795 5791 5788 5784 5780 5775 5771 5767 5763 5761 5760 5758 5756 5755 5754 5753 5751 5750 5749 5749
5834 5840 5845 5850 5852 5853 5845 5843 5838 5831 5838 5832 5827 5821 5820 5820 5822 5820 5819 5815 5813 5811 5812 5811 5806 5802 5797 5791 5786 5785 5784 5781 5778 5774 5771 5767 5764 5760 5756 5753 5751 5750 5750 5750 5750 5748 5747 5746 5745
5836 5829 5832 5843 5847 5848 5841 5822 5821 5827 5827 5818 5813 5807 5806 5807 5808 5806 5806 5805 5804 5803 5802 5800 5798 5794 5788 5783 5779 5776 5775 5773 5769 5765 5762 5759 5757 5753 5750 5746 5745 5745 5745 5745 5744 5744 5744 5742 5742
5825 5817 5813 5836 5845 5846 5829 5799 5813 5821 5813 5802 5800 5796 5792 5791 5793 5794 5795 5795 5794 5791 5789 5787 5787 5783 5778 5773 5770 5766 5764 5761 5758 5755 5751 5750 5748 5745 5742 5739 5738 5739 5739 5738 5737 5737 5737 5737 5738
5810 5805 5812 5828 5842 5841 5825 5800 5806 5814 5804 5791 5787 5784 5781 5780 5780 5782 5783 5783 5781 5779 5777 5774 5773 5770 5767 5764 5762 5759 5756 5751 5748 5746 5743 5741 5738 5737 5733 5732 5731 5732 5732 5732 5732 5731 5731 5730 5732
5798 5808 5813 5816 5830 5828 5813 5800 5801 5803 5794 5783 5777 5773 5770 5768 5768 5771 5772 5772 5771 5769 5766 5763 5761 5758 5757 5755 5753 5750 5746 5743 5741 5738 5735 5733 5730 5728 5726 5724 5723 5725 5725 5725 5726 5726 5727 5727 5728
5813 5808 5807 5816 5827 5818 5806 5795 5790 5791 5784 5774 5768 5764 5760 5760 5763 5764 5764 5763 5761 5758 5755 5752 5749 5747 5745 5742 5739 5736 5734 5733 5732 5731 5729 5725 5723 5722 5718 5715 5716 5718 5718 5718 5720 5721 5720 5721 5724
5810 5803 5805 5812 5822 5811 5796 5781 5776 5772 5769 5767 5762 5758 5756 5754 5754 5754 5754 5753 5751 5747 5745 5743 5739 5736 5735 5732 5730 5728 5725 5725 5724 5723 5721 5719 5716 5715 5713 5710 5710 5710 5711 5712 5714 5715 5714 5716 5721
5805 5800 5797 5795 5803 5803 5788 5758 5749 5750 5754 5757 5758 5756 5754 5751 5747 5745 5744 5744 5742 5739 5737 5734 5730 5727 5724 5722 5721 5719 5716 5715 5714 5713 5712 5712 5710 5708 5706 5705 5704 5704 5705 5705 5707 5709 5709 5709 5715
5790 5799 5799 5795 5783 5777 5776 5736 5724 5731 5730 5738 5746 5748 5747 5745 5742 5739 5737 5734 5733 5731 5730 5726 5722 5718 5714 5712 5709 5705 5702 5700 5701 5702 5703 5703 5703 5702 5701 5700 5699 5699 5699 5699 5700 5703 5705 5705 5704
5800 5810 5803 5794 5779 5768 5749 5723 5702 5715 5717 5728 5737 5740 5740 5739 5737 5733 5730 5727 5726 5724 5721 5717 5713 5708 5705 5701 5698 5695 5692 5691 5691 5691 5692 5693 5694 5694 5694 5694 5693 5692 5692 5694 5694 5696 5698 5699 5699
5814 5806 5796 5777 5761 5731 5720 5709 5695 5709 5718 5725 5730 5734 5734 5733 5731 5727 5725 5721 5717 5715 5711 5706 5701 5697 5694 5691 5687 5684 5681 5679 5679 5679 5680 5682 5684 5685 5686 5686 5685 5685 5685 5686 5687 5688 5689 5691 5694
5802 5781 5757 5732 5716 5707 5720 5706 5701 5722 5732 5731 5729 5729 5730 5728 5724 5720 5716 5712 5707 5704 5700 5696 5691 5687 5684 5680 5677 5674 5671 5670 5669 5669 5669 5670 5672 5674 5675 5677 5676 5676 5677 5678 5680 5680 5681 5684 5686
5790 5779 5751 5729 5725 5718 5716 5704 5711 5732 5738 5737 5733 5730 5727 5723 5719 5713 5709 5704 5699 5694 5689 5685 5680 5676 5674 5670 5667 5665 5662 5661 5661 5660 5659 5659 5661 5663 5666 5667 5668 5668 5668 5669 5670 5671 5673 5676 5678
5785 5782 5789 5769 5758 5739 5720 5714 5718 5735 5734 5733 5730 5726 5720 5716 5711 5706 5702 5696 5690 5685 5680 5675 5670 5666 5663 5660 5658 5655 5653 5651 5649 5648 5647 5648 5649 5652 5654 5654 5655 5656 5658 5659 5659 5660 5663 5666 5669
5796 5788 5776 5760 5739 5733 5725 5714 5709 5719 5721 5724 5721 5717 5713 5709 5704 5698 5693 5687 5681 5676 5671 5666 5661 5656 5653 5650 5647 5645 5642 5639 5637 5636 5635 5634 5634 5636 5638 5639 5642 5643 5645 5646 5647 5649 5652 5655 5658
5777 5772 5766 5761 5752 5733 5723 5707 5730 5724 5723 5719 5716 5712 5706 5700 5695 5689 5683 5678 5672 5667 5661 5655 5651 5646 5642 5639 5635 5632 5631 5628 5626 5623 5622 5621 5621 5621 5621 5623 5626 5628 5631 5633 5634 5637 5640 5643 5646
5776 5767 5759 5738 5734 5743 5733 5712 5740 5733 5726 5719 5711 5706 5700 5693 5687 5680 5674 5667 5661 5655 5650 5645 5640 5635 5631 5628 5625 5621 5619 5616 5613 5610 5608 5607 5606 5606 5606 5608 5610 5612 5615 5618 5621 5622 5627 5630 5634